Aeroporto :
LOGIN :

Iscrizione | Disclaimer

   EN    FR    IT 

 










Sommario :    VFR   VFR Marginale   IFR   IFR Intensivo   IFR Molto Intensivo
Visibilità : 
Base nubi : 
>= 8 km
>= 3000ft
5 / 8 km
1000 / 3000 ft
1500m / 5 km
500 / 1000 ft
800 / 1500m
200 / 500 ft
< 800m
< 200 ft
Simboli :   Temporali  Nebbia  Neve Forte  Precipitazioni Forti  Vento > 20 kt
SIGMETs :   Varie  Temporali  Ghiacco  Turbolenza  Onda orograficha  Ceneri Vulcaniche






- Altitudine del aeroporto : 238 ft
- Codice IATA : FAB


EGLF - Farnborough

ULTIMO METAR :
  • 080650Z 19001KT 0300 R24/0450 FZFG VV/// M06/M08 Q1036

METARs OBSOLETI :
  • 080620Z AUTO 19002KT 9999 BKN001/// M06/M09 Q1036
  • 080550Z AUTO 00000KT 9999 BKN001/// M06/M08 Q1036
  • 080520Z AUTO 19001KT 9000 NCD M07/M09 Q1036
  • 080450Z AUTO 19001KT 6000 NCD M06/M08 Q1036
  • 080420Z AUTO 19002KT 7000 NCD M05/M07 Q1036
  • 080350Z AUTO 20002KT 8000 NCD M06/M08 Q1036

Previsioni scadute.
ATIS : +44 09063 800 400 (*282)



MetMap, La meteo Aeronautica in un colpo d'occhio ! - Copyright ORBIFLY Dicembre 2007 - Disclaimer

ORBIFLY MET'MAP TEAM :

Programmazione e sviluppo : Alexandra Zaïnal
Concezione : Baudouin d'Aumeries
Supporto tecnico e logistico : Manuel Goepfert
Aiuto : Marc-Olivier Méhu
Aiuto per la traduzione : Arnaldo La Scala




FONTI E CREDITI :

   NOAA